QPF
0.06 0.07 0.05 0.08 0.06 0.07 0.11 0.14 0.22 0.30 0.28 0.20 0.15 0.13 0.14 0.14 0.11 0.11 0.10 0.07 0.05 0.06 0.06 0.05 0.05 0.06 0.06 0.04 0.04 0.06 0.07 0.05 0.05 0.04 0.02 0.01 0.01 0.01 0.01 0.01 0.01 0.01 0.01
0.04 0.05 0.06 0.07 0.06 0.05 0.06 0.09 0.13 0.22 0.27 0.24 0.17 0.15 0.14 0.14 0.11 0.11 0.12 0.09 0.07 0.07 0.06 0.05 0.05 0.05 0.05 0.03 0.02 0.03 0.06 0.07 0.05 0.04 0.02 0.01 0.01 0.01 0.01 0.01 0.01 0.01 0.02
0.02 0.03 0.05 0.06 0.06 0.04 0.04 0.06 0.07 0.11 0.16 0.20 0.19 0.14 0.13 0.13 0.12 0.11 0.11 0.09 0.07 0.07 0.08 0.05 0.04 0.05 0.05 0.03 0.02 0.01 0.02 0.04 0.05 0.05 0.03 0.02 0.01 0.01 0.01 0.01 0.01 0.01 0.02
0.01 0.01 0.02 0.04 0.04 0.03 0.03 0.04 0.06 0.06 0.09 0.12 0.16 0.18 0.14 0.12 0.12 0.10 0.09 0.08 0.05 0.07 0.11 0.09 0.05 0.04 0.04 0.03 0.02 0.02 0.01 0.02 0.02 0.03 0.03 0.02 0.01 0.01 0.01 0.00 0.01 0.01 0.01
0.00 0.00 0.00 0.01 0.01 0.02 0.02 0.03 0.05 0.05 0.07 0.08 0.10 0.14 0.15 0.13 0.13 0.11 0.08 0.06 0.05 0.06 0.10 0.10 0.07 0.05 0.04 0.03 0.03 0.03 0.02 0.02 0.02 0.02 0.02 0.01 0.01 0.01 0.01 0.00 0.00 0.00 0.01
0.00 0.00 0.00 0.00 0.00 0.00 0.01 0.02 0.04 0.05 0.06 0.07 0.07 0.08 0.10 0.11 0.11 0.11 0.09 0.07 0.05 0.06 0.10 0.11 0.08 0.07 0.05 0.03 0.02 0.02 0.02 0.02 0.02 0.02 0.01 0.01 0.01 0.01 0.01 0.01 0.00 0.01 0.00
0.00 0.00 0.00 0.00 0.00 0.00 0.01 0.01 0.02 0.03 0.03 0.04 0.05 0.05 0.06 0.07 0.08 0.08 0.08 0.07 0.06 0.06 0.11 0.16 0.10 0.08 0.05 0.03 0.02 0.01 0.01 0.01 0.01 0.01 0.01 0.01 0.01 0.01 0.01 0.00 0.00 0.00 0.00
0.00 0.00 0.00 0.00 0.00 0.00 0.01 0.01 0.02 0.02 0.01 0.01 0.02 0.02 0.03 0.04 0.05 0.06 0.06 0.07 0.07 0.07 0.08 0.15 0.15 0.10 0.09 0.05 0.03 0.02 0.01 0.01 0.01 0.01 0.01 0.01 0.01 0.00 0.00 0.00 0.00 0.00 0.00
0.00 0.00 0.00 0.00 0.00 0.00 0.00 0.02 0.02 0.02 0.01 0.00 0.01 0.01 0.02 0.03 0.04 0.04 0.04 0.04 0.04 0.06 0.08 0.12 0.16 0.13 0.10 0.08 0.05 0.03 0.01 0.01 0.01 0.01 0.01 0.01 0.01 0.00 0.00 0.00 0.00 0.01 0.01
0.00 0.00 0.00 0.00 0.00 0.00 0.00 0.01 0.03 0.03 0.02 0.01 0.01 0.01 0.01 0.02 0.03 0.03 0.04 0.03 0.03 0.04 0.05 0.09 0.12 0.12 0.10 0.09 0.06 0.04 0.02 0.01 0.01 0.01 0.01 0.01 0.00 0.00 0.00 0.00 0.00 0.01 0.01
0.00 0.00 0.00 0.00 0.00 0.00 0.00 0.00 0.02 0.03 0.04 0.02 0.01 0.01 0.01 0.01 0.01 0.02 0.03 0.03 0.02 0.03 0.04 0.06 0.09 0.10 0.10 0.07 0.06 0.05 0.03 0.02 0.01 0.01 0.01 0.00 0.00 0.00 0.00 0.00 0.00 0.01 0.01
0.00 0.00 0.00 0.00 0.00 0.00 0.00 0.00 0.01 0.02 0.04 0.03 0.02 0.02 0.02 0.02 0.02 0.02 0.02 0.02 0.02 0.02 0.03 0.04 0.07 0.08 0.09 0.07 0.04 0.03 0.03 0.02 0.01 0.00 0.01 0.01 0.00 0.00 0.00 0.00 0.00 0.00 0.01
0.00 0.00 0.00 0.00 0.00 0.00 0.01 0.00 0.01 0.01 0.03 0.04 0.04 0.03 0.02 0.02 0.03 0.03 0.03 0.03 0.02 0.01 0.02 0.02 0.04 0.07 0.08 0.07 0.06 0.04 0.03 0.02 0.01 0.01 0.01 0.01 0.00 0.00 0.00 0.00 0.00 0.00 0.00
0.00 0.00 0.00 0.00 0.00 0.00 0.00 0.00 0.00 0.01 0.01 0.03 0.05 0.05 0.05 0.04 0.04 0.04 0.05 0.05 0.03 0.02 0.02 0.02 0.02 0.04 0.06 0.07 0.06 0.04 0.03 0.03 0.02 0.02 0.01 0.01 0.00 0.00 0.00 0.00 0.00 0.00 0.01
0.00 0.00 0.00 0.00 0.00 0.00 0.00 0.00 0.00 0.00 0.01 0.01 0.03 0.05 0.05 0.05 0.05 0.04 0.05 0.06 0.05 0.03 0.02 0.02 0.02 0.02 0.02 0.04 0.05 0.04 0.03 0.02 0.02 0.02 0.01 0.01 0.00 0.00 0.00 0.00 0.00 0.00 0.01
0.00 0.00 0.00 0.00 0.00 0.00 0.00 0.00 0.00 0.00 0.00 0.01 0.01 0.02 0.03 0.04 0.04 0.04 0.04 0.05 0.06 0.05 0.03 0.02 0.02 0.01 0.01 0.02 0.02 0.03 0.03 0.02 0.02 0.02 0.01 0.01 0.00 0.00 0.00 0.00 0.00 0.00 0.01
0.00 0.00 0.00 0.00 0.00 0.00 0.00 0.00 0.00 0.00 0.00 0.00 0.01 0.01 0.01 0.02 0.02 0.03 0.03 0.03 0.04 0.05 0.04 0.03 0.02 0.01 0.01 0.01 0.01 0.01 0.02 0.02 0.01 0.01 0.01 0.01 0.00 0.00 0.00 0.00 0.00 0.00 0.00
0.00 0.00 0.00 0.00 0.00 0.00 0.00 0.00 0.00 0.00 0.00 0.00 0.00 0.01 0.01 0.01 0.01 0.01 0.02 0.02 0.03 0.03 0.03 0.02 0.02 0.01 0.01 0.00 0.00 0.00 0.00 0.01 0.01 0.01 0.01 0.01 0.00 0.00 0.00 0.00 0.00 0.00 0.00
0.00 0.00 0.00 0.00 0.00 0.00 0.00 0.00 0.00 0.00 0.00 0.00 0.00 0.00 0.01 0.01 0.01 0.01 0.01 0.02 0.02 0.02 0.02 0.01 0.01 0.01 0.00 0.00 0.00 0.00 0.00 0.00 0.00 0.00 0.00 0.00 0.00 0.00 0.00 0.00 0.00 0.00 0.00
0.00 0.00 0.00 0.00 0.00 0.00 0.00 0.00 0.00 0.00 0.00 0.00 0.00 0.00 0.00 0.00 0.01 0.01 0.01 0.01 0.02 0.02 0.01 0.01 0.01 0.00 0.00 0.00 0.00 0.00 0.00 0.00 0.00 0.00 0.00 0.00 0.00 0.00 0.00 0.00 0.01 0.00 0.00
0.00 0.00 0.00 0.00 0.01 0.01 0.01 0.01 0.00 0.00 0.00 0.00 0.00 0.00 0.00 0.00 0.00 0.00 0.01 0.01 0.01 0.01 0.01 0.01 0.00 0.00 0.00 0.00 0.00 0.00 0.00 0.00 0.00 0.00 0.00 0.00 0.00 0.00 0.00 0.01 0.01 0.01 0.01
0.00 0.00 0.00 0.01 0.01 0.01 0.01 0.01 0.01 0.01 0.01 0.00 0.00 0.00 0.00 0.00 0.00 0.00 0.00 0.01 0.01 0.01 0.01 0.00 0.00 0.00 0.00 0.00 0.00 0.00 0.00 0.00 0.00 0.00 0.00 0.00 0.00 0.00 0.01 0.01 0.01 0.01 0.01
0.00 0.00 0.00 0.00 0.00 0.00 0.00 0.01 0.01 0.01 0.01 0.00 0.00 0.00 0.01 0.01 0.01 0.01 0.01 0.01 0.01 0.01 0.01 0.00 0.00 0.00 0.00 0.00 0.00 0.00 0.00 0.00 0.00 0.00 0.00 0.00 0.00 0.00 0.01 0.01 0.01 0.01 0.01
0.00 0.00 0.00 0.00 0.01 0.01 0.01 0.00 0.00 0.00 0.00 0.00 0.00 0.00 0.00 0.00 0.01 0.01 0.01 0.01 0.01 0.01 0.01 0.00 0.00 0.00 0.00 0.00 0.00 0.00 0.00 0.00 0.00 0.00 0.00 0.00 0.00 0.00 0.00 0.00 0.01 0.01 0.01
0.00 0.00 0.01 0.01 0.01 0.01 0.00 0.00 0.00 0.00 0.00 0.00 0.00 0.00 0.00 0.00 0.00 0.01 0.01 0.01 0.01 0.01 0.01 0.00 0.00 0.00 0.00 0.00 0.00 0.00 0.00 0.00 0.01 0.01 0.01 0.01 0.01 0.01 0.01 0.01 0.01 0.01 0.01
0.01 0.01 0.00 0.00 0.00 0.00 0.00 0.00 0.00 0.00 0.00 0.00 0.00 0.00 0.00 0.00 0.01 0.01 0.01 0.01 0.01 0.01 0.01 0.01 0.00 0.00 0.00 0.00 0.00 0.00 0.00 0.01 0.01 0.02 0.02 0.02 0.01 0.01 0.01 0.01 0.01 0.01 0.02
MSLP
1013.40 1013.71 1014.03 1014.36 1014.70 1015.07 1015.47 1015.92 1016.42 1016.94 1017.47 1017.98 1018.44 1018.82 1019.11 1019.30 1019.42 1019.47 1019.50 1019.52 1019.56 1019.62 1019.72 1019.84 1019.95 1020.04 1020.08 1020.04 1019.92 1019.72 1019.46 1019.14 1018.80 1018.47 1018.15 1017.88 1017.64 1017.46 1017.32 1017.23 1017.19 1017.18 1017.22
1013.30 1013.62 1013.94 1014.25 1014.58 1014.93 1015.32 1015.76 1016.25 1016.79 1017.34 1017.88 1018.36 1018.76 1019.06 1019.25 1019.35 1019.39 1019.40 1019.41 1019.44 1019.52 1019.64 1019.79 1019.94 1020.06 1020.12 1020.11 1020.01 1019.84 1019.60 1019.31 1019.01 1018.71 1018.43 1018.18 1017.96 1017.77 1017.61 1017.47 1017.37 1017.30 1017.27
1013.23 1013.58 1013.91 1014.22 1014.52 1014.84 1015.20 1015.61 1016.09 1016.61 1017.17 1017.71 1018.20 1018.61 1018.92 1019.12 1019.21 1019.25 1019.24 1019.25 1019.28 1019.37 1019.50 1019.66 1019.83 1019.97 1020.05 1020.07 1020.00 1019.86 1019.66 1019.43 1019.18 1018.94 1018.72 1018.52 1018.33 1018.14 1017.96 1017.79 1017.62 1017.48 1017.37
1013.20 1013.58 1013.93 1014.23 1014.52 1014.79 1015.10 1015.47 1015.90 1016.40 1016.93 1017.46 1017.96 1018.38 1018.70 1018.90 1019.01 1019.05 1019.06 1019.06 1019.10 1019.18 1019.31 1019.47 1019.64 1019.79 1019.89 1019.92 1019.88 1019.79 1019.64 1019.48 1019.31 1019.15 1019.00 1018.86 1018.71 1018.55 1018.36 1018.15 1017.92 1017.71 1017.52
1013.21 1013.62 1013.99 1014.29 1014.55 1014.78 1015.04 1015.34 1015.71 1016.15 1016.64 1017.15 1017.64 1018.07 1018.40 1018.63 1018.77 1018.83 1018.85 1018.87 1018.91 1018.99 1019.11 1019.26 1019.41 1019.55 1019.64 1019.69 1019.68 1019.63 1019.55 1019.45 1019.36 1019.29 1019.22 1019.14 1019.05 1018.91 1018.73 1018.49 1018.23 1017.94 1017.69
1013.24 1013.70 1014.08 1014.39 1014.61 1014.80 1014.99 1015.22 1015.52 1015.90 1016.34 1016.82 1017.29 1017.72 1018.07 1018.33 1018.50 1018.60 1018.65 1018.68 1018.73 1018.80 1018.90 1019.03 1019.16 1019.27 1019.36 1019.41 1019.41 1019.40 1019.37 1019.34 1019.32 1019.32 1019.32 1019.31 1019.27 1019.17 1019.00 1018.76 1018.46 1018.14 1017.83
1013.30 1013.79 1014.20 1014.50 1014.71 1014.85 1014.99 1015.15 1015.37 1015.68 1016.06 1016.49 1016.94 1017.37 1017.74 1018.03 1018.24 1018.38 1018.47 1018.52 1018.58 1018.64 1018.72 1018.81 1018.91 1018.99 1019.05 1019.09 1019.10 1019.10 1019.11 1019.13 1019.17 1019.22 1019.28 1019.32 1019.31 1019.25 1019.10 1018.87 1018.58 1018.25 1017.90
1013.38 1013.90 1014.32 1014.62 1014.81 1014.93 1015.02 1015.13 1015.29 1015.53 1015.85 1016.24 1016.65 1017.07 1017.45 1017.76 1018.01 1018.18 1018.31 1018.39 1018.45 1018.50 1018.56 1018.62 1018.67 1018.72 1018.75 1018.76 1018.76 1018.77 1018.79 1018.82 1018.89 1018.97 1019.05 1019.12 1019.15 1019.12 1019.00 1018.81 1018.54 1018.22 1017.89
1013.46 1013.98 1014.41 1014.72 1014.92 1015.03 1015.10 1015.17 1015.28 1015.47 1015.74 1016.07 1016.45 1016.85 1017.22 1017.55 1017.82 1018.02 1018.17 1018.28 1018.35 1018.39 1018.43 1018.46 1018.47 1018.47 1018.46 1018.44 1018.42 1018.41 1018.41 1018.45 1018.50 1018.58 1018.67 1018.74 1018.78 1018.78 1018.70 1018.55 1018.33 1018.06 1017.77
1013.51 1014.02 1014.44 1014.77 1014.98 1015.11 1015.18 1015.25 1015.34 1015.50 1015.73 1016.02 1016.36 1016.72 1017.08 1017.41 1017.68 1017.90 1018.07 1018.18 1018.26 1018.30 1018.32 1018.32 1018.30 1018.26 1018.22 1018.16 1018.10 1018.06 1018.03 1018.02 1018.05 1018.09 1018.16 1018.21 1018.26 1018.26 1018.22 1018.12 1017.97 1017.77 1017.55
1013.48 1013.96 1014.38 1014.72 1014.96 1015.12 1015.23 1015.33 1015.44 1015.59 1015.80 1016.07 1016.37 1016.70 1017.02 1017.33 1017.60 1017.81 1017.98 1018.10 1018.18 1018.22 1018.22 1018.20 1018.16 1018.09 1018.01 1017.92 1017.82 1017.73 1017.65 1017.60 1017.57 1017.56 1017.58 1017.60 1017.63 1017.64 1017.62 1017.58 1017.49 1017.38 1017.23
1013.38 1013.81 1014.21 1014.55 1014.82 1015.04 1015.21 1015.37 1015.52 1015.70 1015.92 1016.17 1016.45 1016.74 1017.03 1017.31 1017.55 1017.76 1017.92 1018.03 1018.11 1018.14 1018.14 1018.11 1018.04 1017.95 1017.84 1017.72 1017.58 1017.44 1017.32 1017.20 1017.11 1017.04 1016.99 1016.97 1016.96 1016.96 1016.96 1016.96 1016.94 1016.90 1016.83
1013.20 1013.55 1013.91 1014.25 1014.57 1014.84 1015.09 1015.33 1015.55 1015.79 1016.03 1016.29 1016.56 1016.83 1017.09 1017.33 1017.54 1017.72 1017.87 1017.97 1018.04 1018.07 1018.06 1018.02 1017.94 1017.83 1017.70 1017.55 1017.38 1017.20 1017.02 1016.85 1016.69 1016.55 1016.44 1016.36 1016.31 1016.29 1016.29 1016.30 1016.32 1016.34 1016.34
1012.98 1013.25 1013.55 1013.87 1014.21 1014.54 1014.87 1015.20 1015.51 1015.82 1016.11 1016.40 1016.67 1016.93 1017.16 1017.38 1017.56 1017.71 1017.84 1017.92 1017.98 1018.00 1017.98 1017.93 1017.84 1017.72 1017.56 1017.39 1017.18 1016.97 1016.75 1016.52 1016.31 1016.11 1015.94 1015.80 1015.69 1015.63 1015.60 1015.61 1015.65 1015.69 1015.74
1012.81 1012.96 1013.18 1013.47 1013.82 1014.20 1014.60 1015.00 1015.41 1015.79 1016.15 1016.48 1016.77 1017.02 1017.25 1017.43 1017.59 1017.72 1017.82 1017.88 1017.92 1017.93 1017.89 1017.82 1017.72 1017.58 1017.41 1017.21 1016.98 1016.73 1016.47 1016.20 1015.94 1015.69 1015.45 1015.26 1015.09 1014.98 1014.91 1014.89 1014.91 1014.95 1015.01
1012.76 1012.80 1012.93 1013.16 1013.49 1013.89 1014.33 1014.81 1015.28 1015.74 1016.16 1016.53 1016.85 1017.11 1017.32 1017.50 1017.63 1017.73 1017.80 1017.84 1017.86 1017.84 1017.78 1017.69 1017.57 1017.40 1017.21 1016.98 1016.73 1016.45 1016.16 1015.86 1015.56 1015.26 1014.98 1014.72 1014.50 1014.32 1014.20 1014.12 1014.09 1014.10 1014.14
1012.94 1012.85 1012.89 1013.04 1013.33 1013.71 1014.18 1014.69 1015.21 1015.72 1016.18 1016.58 1016.92 1017.19 1017.40 1017.55 1017.66 1017.74 1017.78 1017.79 1017.77 1017.72 1017.64 1017.52 1017.36 1017.17 1016.94 1016.69 1016.41 1016.11 1015.80 1015.47 1015.13 1014.80 1014.48 1014.17 1013.89 1013.65 1013.45 1013.31 1013.21 1013.16 1013.16
1013.40 1013.20 1013.13 1013.21 1013.43 1013.78 1014.22 1014.73 1015.26 1015.78 1016.25 1016.66 1017.00 1017.27 1017.46 1017.60 1017.68 1017.72 1017.73 1017.71 1017.65 1017.57 1017.45 1017.29 1017.10 1016.87 1016.62 1016.34 1016.03 1015.71 1015.37 1015.03 1014.67 1014.31 1013.95 1013.60 1013.26 1012.96 1012.69 1012.47 1012.30 1012.18 1012.11
1014.13 1013.85 1013.70 1013.69 1013.83 1014.12 1014.51 1014.97 1015.47 1015.96 1016.41 1016.80 1017.11 1017.35 1017.51 1017.61 1017.66 1017.66 1017.63 1017.57 1017.48 1017.35 1017.19 1017.00 1016.78 1016.52 1016.24 1015.93 1015.61 1015.27 1014.92 1014.56 1014.18 1013.80 1013.41 1013.02 1012.65 1012.28 1011.95 1011.65 1011.40 1011.20 1011.07
1015.08 1014.75 1014.53 1014.45 1014.51 1014.71 1015.03 1015.42 1015.84 1016.27 1016.66 1016.99 1017.24 1017.43 1017.54 1017.59 1017.58 1017.54 1017.47 1017.36 1017.23 1017.07 1016.88 1016.66 1016.41 1016.14 1015.84 1015.51 1015.18 1014.82 1014.46 1014.08 1013.70 1013.30 1012.89 1012.47 1012.05 1011.64 1011.25 1010.89 1010.57 1010.30 1010.09
1016.10 1015.76 1015.51 1015.38 1015.38 1015.50 1015.72 1016.01 1016.34 1016.66 1016.96 1017.20 1017.37 1017.47 1017.51 1017.50 1017.44 1017.34 1017.22 1017.08 1016.91 1016.73 1016.52 1016.28 1016.02 1015.73 1015.42 1015.09 1014.75 1014.39 1014.02 1013.63 1013.23 1012.82 1012.39 1011.95 1011.50 1011.05 1010.62 1010.20 1009.83 1009.50 1009.24
1017.07 1016.75 1016.50 1016.35 1016.30 1016.34 1016.47 1016.66 1016.87 1017.08 1017.25 1017.38 1017.45 1017.47 1017.42 1017.34 1017.21 1017.06 1016.90 1016.72 1016.53 1016.32 1016.10 1015.86 1015.60 1015.31 1015.01 1014.68 1014.34 1013.98 1013.60 1013.20 1012.79 1012.36 1011.91 1011.45 1010.97 1010.50 1010.03 1009.58 1009.16 1008.80 1008.50
1017.83 1017.57 1017.36 1017.20 1017.12 1017.11 1017.15 1017.24 1017.33 1017.42 1017.48 1017.49 1017.46 1017.38 1017.25 1017.09 1016.90 1016.71 1016.50 1016.29 1016.09 1015.87 1015.65 1015.41 1015.16 1014.89 1014.59 1014.28 1013.93 1013.57 1013.18 1012.77 1012.34 1011.89 1011.41 1010.92 1010.43 1009.93 1009.44 1008.97 1008.54 1008.15 1007.83
1018.29 1018.11 1017.95 1017.82 1017.73 1017.67 1017.65 1017.65 1017.64 1017.62 1017.57 1017.48 1017.35 1017.19 1016.99 1016.77 1016.53 1016.29 1016.06 1015.83 1015.61 1015.39 1015.17 1014.94 1014.70 1014.44 1014.15 1013.84 1013.50 1013.12 1012.72 1012.28 1011.82 1011.34 1010.84 1010.32 1009.80 1009.29 1008.79 1008.31 1007.88 1007.49 1007.17
1018.41 1018.32 1018.22 1018.13 1018.04 1017.96 1017.89 1017.81 1017.73 1017.62 1017.48 1017.32 1017.12 1016.89 1016.64 1016.38 1016.11 1015.85 1015.59 1015.35 1015.11 1014.89 1014.67 1014.44 1014.20 1013.94 1013.66 1013.34 1012.98 1012.59 1012.15 1011.68 1011.19 1010.66 1010.12 1009.58 1009.04 1008.51 1008.01 1007.54 1007.12 1006.76 1006.46
1018.24 1018.22 1018.18 1018.11 1018.03 1017.94 1017.83 1017.71 1017.57 1017.41 1017.22 1017.01 1016.77 1016.51 1016.24 1015.96 1015.68 1015.40 1015.13 1014.87 1014.63 1014.39 1014.15 1013.91 1013.66 1013.38 1013.08 1012.74 1012.35 1011.92 1011.45 1010.94 1010.39 1009.82 1009.25 1008.67 1008.11 1007.58 1007.08 1006.64 1006.25 1005.93 1005.68
Thickness
5625 5627 5627 5628 5630 5631 5631 5632 5633 5634 5636 5636 5635 5636 5636 5637 5638 5638 5639 5640 5641 5642 5643 5643 5643 5644 5644 5644 5644 5644 5643 5642 5642 5640 5640 5642 5644 5644 5643 5643 5642 5642 5642
5622 5623 5624 5624 5624 5625 5625 5626 5626 5627 5629 5628 5629 5629 5630 5630 5630 5630 5630 5632 5633 5634 5635 5636 5636 5637 5637 5636 5637 5636 5634 5634 5634 5632 5630 5629 5631 5633 5636 5635 5635 5634 5635
5617 5618 5619 5619 5618 5618 5619 5621 5620 5621 5621 5620 5620 5621 5622 5621 5622 5622 5623 5623 5625 5626 5627 5628 5629 5630 5630 5629 5629 5629 5628 5625 5625 5625 5623 5620 5620 5621 5625 5627 5627 5627 5627
5615 5614 5615 5614 5613 5613 5614 5614 5614 5614 5613 5613 5612 5612 5613 5613 5614 5615 5616 5616 5617 5618 5619 5620 5622 5623 5623 5622 5622 5622 5621 5620 5618 5617 5618 5616 5615 5613 5613 5616 5618 5619 5619
5611 5610 5610 5609 5608 5608 5607 5608 5608 5607 5607 5607 5607 5605 5606 5606 5607 5609 5608 5609 5609 5610 5612 5614 5615 5615 5615 5615 5615 5615 5613 5613 5612 5611 5610 5609 5608 5608 5606 5606 5608 5609 5611
5605 5605 5605 5604 5602 5601 5600 5600 5600 5600 5601 5600 5599 5598 5598 5598 5599 5600 5600 5600 5602 5603 5604 5606 5608 5608 5608 5608 5608 5607 5606 5606 5605 5604 5603 5602 5601 5601 5600 5599 5599 5600 5603
5597 5597 5596 5596 5594 5593 5592 5592 5592 5592 5592 5592 5591 5591 5591 5591 5592 5592 5592 5593 5594 5595 5597 5598 5600 5599 5599 5600 5600 5599 5598 5598 5597 5596 5595 5595 5595 5595 5594 5592 5592 5593 5595
5589 5589 5588 5588 5587 5586 5585 5585 5585 5584 5585 5585 5584 5584 5585 5584 5585 5586 5586 5586 5587 5589 5589 5590 5591 5592 5591 5592 5592 5591 5590 5590 5589 5588 5587 5587 5587 5587 5587 5585 5584 5583 5585
5580 5580 5580 5580 5580 5578 5577 5577 5577 5577 5577 5578 5577 5576 5576 5577 5577 5577 5578 5578 5580 5580 5580 5581 5582 5583 5582 5582 5583 5581 5581 5581 5581 5580 5580 5579 5580 5580 5579 5578 5576 5574 5575
5572 5572 5571 5571 5571 5570 5569 5568 5568 5568 5569 5569 5569 5569 5568 5569 5569 5569 5569 5570 5571 5571 5571 5572 5573 5573 5573 5574 5573 5572 5572 5572 5572 5572 5571 5571 5571 5571 5570 5569 5568 5567 5566
5563 5563 5562 5562 5561 5561 5560 5559 5559 5559 5559 5559 5559 5559 5559 5560 5560 5560 5560 5561 5561 5562 5562 5563 5563 5563 5563 5564 5564 5563 5563 5563 5563 5563 5563 5562 5562 5561 5560 5560 5559 5558 5557
5555 5553 5552 5551 5551 5550 5549 5548 5548 5548 5549 5549 5549 5549 5550 5550 5550 5550 5550 5551 5551 5552 5553 5552 5553 5553 5554 5554 5554 5553 5553 5553 5553 5553 5553 5552 5552 5552 5551 5550 5550 5549 5548
5544 5543 5542 5540 5539 5539 5539 5538 5538 5538 5538 5539 5539 5539 5539 5540 5540 5540 5540 5540 5541 5542 5542 5542 5542 5543 5543 5543 5543 5543 5543 5543 5543 5543 5542 5542 5542 5541 5540 5540 5540 5539 5539
5533 5532 5530 5530 5529 5529 5529 5528 5528 5528 5528 5528 5528 5527 5527 5528 5529 5529 5529 5530 5530 5530 5531 5531 5531 5532 5532 5532 5532 5532 5532 5532 5532 5532 5532 5532 5531 5531 5529 5529 5529 5528 5528
5519 5519 5518 5518 5518 5517 5517 5517 5516 5516 5517 5516 5516 5516 5516 5516 5517 5517 5517 5518 5518 5519 5520 5520 5520 5520 5520 5520 5519 5519 5520 5520 5520 5520 5521 5521 5521 5520 5519 5519 5518 5517 5516
5507 5507 5507 5506 5506 5506 5505 5504 5504 5504 5503 5503 5503 5504 5504 5505 5505 5506 5506 5506 5507 5507 5508 5508 5508 5509 5509 5509 5509 5508 5507 5507 5508 5508 5508 5509 5509 5509 5509 5508 5507 5506 5505
5496 5495 5494 5494 5494 5494 5493 5491 5491 5491 5490 5490 5490 5491 5492 5492 5492 5493 5494 5494 5494 5495 5495 5496 5497 5497 5496 5497 5497 5496 5495 5495 5496 5496 5496 5496 5497 5497 5496 5496 5496 5495 5495
5483 5482 5481 5481 5480 5480 5480 5479 5478 5477 5477 5476 5477 5478 5479 5479 5479 5480 5481 5481 5482 5482 5483 5484 5484 5484 5484 5485 5484 5484 5483 5483 5484 5484 5484 5484 5483 5484 5483 5483 5483 5482 5482
5470 5468 5467 5467 5467 5467 5466 5465 5464 5464 5463 5463 5463 5464 5465 5465 5466 5466 5467 5468 5468 5469 5469 5470 5471 5471 5471 5472 5472 5471 5469 5470 5471 5471 5471 5470 5470 5471 5471 5469 5468 5468 5469
5456 5455 5454 5453 5452 5453 5452 5451 5450 5450 5450 5451 5451 5451 5452 5452 5452 5453 5454 5455 5455 5456 5457 5457 5458 5458 5459 5459 5459 5458 5457 5456 5457 5458 5458 5458 5458 5458 5457 5455 5455 5455 5456
5441 5441 5440 5439 5438 5438 5438 5437 5437 5437 5437 5438 5438 5439 5439 5439 5439 5440 5441 5441 5442 5442 5443 5444 5445 5446 5446 5446 5446 5445 5443 5443 5443 5444 5445 5445 5445 5445 5444 5443 5442 5443 5443
5427 5427 5426 5426 5425 5425 5424 5423 5424 5425 5425 5425 5425 5425 5426 5426 5427 5426 5427 5427 5427 5427 5428 5429 5431 5432 5433 5433 5432 5432 5431 5430 5430 5431 5431 5431 5432 5432 5431 5430 5430 5430 5429
5414 5413 5412 5412 5412 5412 5411 5410 5411 5412 5412 5412 5412 5412 5413 5413 5413 5413 5413 5413 5413 5413 5414 5415 5416 5418 5418 5418 5419 5419 5418 5418 5416 5417 5417 5418 5418 5418 5417 5417 5417 5416 5414
5399 5399 5398 5398 5398 5398 5398 5397 5398 5399 5399 5399 5399 5399 5399 5400 5400 5400 5400 5399 5399 5400 5400 5401 5401 5402 5404 5404 5404 5404 5404 5404 5403 5403 5403 5404 5404 5404 5404 5404 5404 5403 5402
5385 5385 5384 5384 5384 5384 5385 5385 5385 5386 5386 5386 5386 5386 5387 5386 5387 5387 5387 5387 5388 5388 5388 5388 5387 5387 5390 5392 5391 5390 5390 5390 5389 5389 5389 5390 5390 5391 5391 5391 5391 5391 5390
5372 5371 5370 5370 5370 5371 5372 5373 5373 5373 5373 5373 5374 5373 5373 5373 5373 5373 5374 5375 5375 5377 5377 5377 5376 5377 5379 5379 5379 5378 5378 5377 5377 5376 5377 5378 5379 5379 5380 5380 5380 5380 5380